Location: Unspecified
(0.0000°N, 0.0000°E)
Time: 02:38:42
(UTC+00:00)

ACS3 Solar Sail - Pass Details

Date: 21 November 2025
Orbit: 887 x 1000 km, 97.3° (Epoch: 14 December)

Event Time Altitude Azimuth Distance (km) Brightness Sun altitude
Exits shadow 02:48:59 15° 179° (S) 2,462 4.1 -41.0°
Drops below altitude 10° 02:49:52 10° 180° (S) 2,785 4.4 -40.8°
Sets 02:52:24 0° 184° (S) 3,742 5.1 -40.2°
